TimeEDT,TemperatureF,Dew PointF,Humidity,Sea Level PressureIn,VisibilityMPH,Wind Direction,Wind SpeedMPH,Gust SpeedMPH,PrecipitationIn,Events,Conditions,WindDirDegrees,DateUTC
12:58 AM,37.9,32.4,80,30.04,10.0,West,12.7,-,N/A,,Overcast,270,2013-10-24 04:58:00
1:58 AM,37.9,32.4,80,30.05,10.0,West,11.5,-,N/A,,Overcast,270,2013-10-24 05:58:00
2:09 AM,37.4,32.0,81,30.02,10.0,West,10.4,-,N/A,Rain,Light Rain,270,2013-10-24 06:09:00
2:24 AM,37.4,32.0,81,30.02,10.0,West,9.2,-,N/A,,Overcast,260,2013-10-24 06:24:00
2:58 AM,37.2,33.3,86,30.05,10.0,West,10.4,-,0.00,,Overcast,260,2013-10-24 06:58:00
3:58 AM,36.7,33.3,87,30.05,10.0,West,10.4,-,N/A,,Overcast,260,2013-10-24 07:58:00
4:58 AM,36.3,33.1,88,30.04,10.0,West,10.4,-,N/A,,Overcast,260,2013-10-24 08:58:00
5:58 AM,36.1,33.1,89,30.06,10.0,West,11.5,-,N/A,,Overcast,270,2013-10-24 09:58:00
6:58 AM,35.6,33.3,91,30.07,10.0,West,9.2,-,N/A,,Overcast,260,2013-10-24 10:58:00
7:58 AM,35.4,33.3,92,30.08,10.0,West,9.2,-,N/A,,Overcast,260,2013-10-24 11:58:00
8:58 AM,36.3,34.2,92,30.09,10.0,West,10.4,-,N/A,,Overcast,260,2013-10-24 12:58:00
9:58 AM,37.6,35.2,91,30.12,10.0,West,11.5,-,N/A,,Overcast,270,2013-10-24 13:58:00
10:30 AM,39.2,35.6,87,30.09,10.0,West,10.4,-,N/A,,Overcast,280,2013-10-24 14:30:00
10:55 AM,39.2,33.8,81,30.10,10.0,West,11.5,-,N/A,,Overcast,280,2013-10-24 14:55:00
10:58 AM,38.8,34.3,84,30.13,10.0,West,10.4,-,N/A,,Overcast,280,2013-10-24 14:58:00
11:26 AM,39.2,32.0,75,30.11,10.0,West,10.4,-,N/A,,Overcast,280,2013-10-24 15:26:00
11:31 AM,39.2,33.8,81,30.11,10.0,WNW,11.5,-,N/A,,Overcast,290,2013-10-24 15:31:00
11:36 AM,39.2,32.0,75,30.11,10.0,WNW,12.7,-,N/A,,Overcast,290,2013-10-24 15:36:00
11:58 AM,40.1,33.3,77,30.14,10.0,WNW,13.8,-,N/A,,Overcast,290,2013-10-24 15:58:00
12:08 PM,41.0,32.0,70,30.11,10.0,West,10.4,-,N/A,,Overcast,280,2013-10-24 16:08:00
12:43 PM,41.0,32.0,70,30.12,10.0,West,9.2,-,N/A,,Overcast,280,2013-10-24 16:43:00
12:48 PM,41.0,32.0,70,30.12,10.0,WNW,11.5,-,N/A,,Overcast,290,2013-10-24 16:48:00
12:58 PM,41.0,31.6,69,30.15,10.0,WNW,10.4,-,N/A,,Overcast,290,2013-10-24 16:58:00
1:03 PM,41.0,32.0,70,30.12,10.0,WNW,10.4,-,N/A,,Overcast,290,2013-10-24 17:03:00
1:08 PM,41.0,32.0,70,30.12,10.0,NW,12.7,-,N/A,,Overcast,310,2013-10-24 17:08:00
1:58 PM,42.3,28.0,57,30.15,10.0,West,11.5,-,N/A,,Overcast,280,2013-10-24 17:58:00
2:58 PM,42.4,28.8,58,30.15,10.0,WNW,10.4,-,N/A,,Overcast,290,2013-10-24 18:58:00
3:20 PM,41.0,28.4,61,30.13,10.0,NNW,12.7,-,N/A,Rain,Light Rain,340,2013-10-24 19:20:00
3:55 PM,39.2,32.0,75,30.17,10.0,North,6.9,-,0.00,,Overcast,350,2013-10-24 19:55:00
4:59 PM,40.3,30.2,67,30.19,10.0,WNW,9.2,-,N/A,,Overcast,290,2013-10-24 20:59:00
5:58 PM,40.3,27.3,60,30.20,10.0,WNW,10.4,-,N/A,,Overcast,290,2013-10-24 21:58:00
6:58 PM,39.0,23.7,54,30.23,10.0,NW,10.4,-,N/A,,Scattered Clouds,310,2013-10-24 22:58:00
7:58 PM,35.1,25.2,67,30.25,10.0,West,5.8,-,N/A,,Clear,280,2013-10-24 23:58:00
8:58 PM,30.4,25.7,83,30.28,10.0,West,5.8,-,N/A,,Clear,280,2013-10-25 00:58:00
9:58 PM,30.0,25.9,85,30.29,10.0,West,6.9,-,N/A,,Clear,270,2013-10-25 01:58:00
10:58 PM,31.8,26.8,82,30.30,10.0,WNW,8.1,-,N/A,,Clear,290,2013-10-25 02:58:00
11:58 PM,30.6,26.1,83,30.30,10.0,WNW,6.9,-,N/A,,Clear,290,2013-10-25 03:58:00